Carlsbad, NM

3:32 AM MDT on September 30, 2016 (GMT -0600)
Cavern City

Weather History for KCNM - May, 2014

Change the Weather History Date:

Wednesday, May 7, 2014

  Actual Average Record
Temperature  
Mean Temperature 76 °F -  
Max Temperature 89 °F 86 °F 100 °F (1989)
Min Temperature 64 °F 55 °F 45 °F (1982)
Cooling Degree Days 12    
Growing Degree Days 26 (Base 50)    
Moisture  
Dew Point 24 °F    
Average Humidity 15    
Maximum Humidity 34    
Minimum Humidity 7    
Precipitation  
Precipitation 0.00 in - - ()
Sea Level Pressure  
Sea Level Pressure 29.56 in    
Wind  
Wind Speed 15 mph (WSW)    
Max Wind Speed 28 mph    
Max Gust Speed 38 mph    
Visibility 9 miles    
Events      
Averages and records for this station are not official NWS values.
T = Trace of Precipitation, MM = Missing Value Source: NWS Daily Summary

Daily Weather History Graph

Daily Weather History Graph

Search for Another Location

Airport or City:

Trip Planner

Search our weather history database for the weather conditions in past years. The results will help you decide how hot, cold, wet, or windy it might be!

Date:

Astronomy

May. 07, 2014 Rise Set
Actual Time 6:05 AM MDT 7:42 PM MDT
Civil Twilight 5:38 AM MDT 8:09 PM MDT
Nautical Twilight 5:06 AM MDT 8:40 PM MDT
Astronomical Twilight 4:33 AM MDT 9:14 PM MDT
Moon 1:12 PM MDT (5/7) 1:41 AM MDT (5/7)
Length of Visible Light 14h 30m
Length of Day
13h 37m
First Quarter, 56% of the Moon is Illuminated
May 7
First Quarter
May 14
Full
May 21
Last Quarter
May 28
New
Jun 5
First Quarter

Hourly Weather History & Observations

Time (MDT) Temp. Dew Point Humidity Pressure Visibility Wind Dir Wind Speed Gust Speed Precip Events Conditions
12:53 AM 77.0 °F 35.1 °F 22% 29.55 in 10.0 mi SSW 16.1 mph - N/A   Clear
1:53 AM 75.0 °F 37.9 °F 26% 29.54 in 10.0 mi SW 17.3 mph - N/A   Clear
2:53 AM 73.4 °F 35.6 °F 25% 29.73 in 10.0 mi SW 11.5 mph - N/A   Clear
3:53 AM 66.9 °F 37.0 °F 33% 29.56 in 10.0 mi SW 8.1 mph - N/A   Clear
4:53 AM 69.1 °F 37.9 °F 32% 29.56 in 10.0 mi SW 11.5 mph - N/A   Clear
5:53 AM 64.9 °F 36.0 °F 34% 29.58 in 10.0 mi WSW 10.4 mph - N/A   Clear
6:53 AM 68.0 °F 34.0 °F 28% 29.60 in 10.0 mi SW 6.9 mph - N/A   Clear
7:53 AM 78.1 °F 32.0 °F 19% 29.59 in 10.0 mi WSW 11.5 mph 19.6 mph N/A   Clear
8:53 AM 81.0 °F 32.0 °F 17% 29.59 in 10.0 mi WSW 16.1 mph - N/A   Clear
9:53 AM 82.9 °F 30.9 °F 15% 29.59 in 10.0 mi West 12.7 mph 19.6 mph N/A   Clear
10:53 AM 84.9 °F 27.0 °F 12% 29.59 in 10.0 mi South 15.0 mph 21.9 mph N/A   Partly Cloudy
11:53 AM 88.0 °F 18.0 °F 8% 29.57 in 9.0 mi WSW 26.5 mph 38.0 mph N/A   Clear
12:53 PM 87.1 °F 25.0 °F 10% 29.55 in 10.0 mi SSW 13.8 mph 28.8 mph N/A   Clear
1:53 PM 88.0 °F 25.0 °F 10% 29.53 in 10.0 mi SW 17.3 mph 29.9 mph N/A   Partly Cloudy
2:53 PM 88.0 °F 27.0 °F 11% 29.51 in 10.0 mi SSW 18.4 mph 28.8 mph N/A   Partly Cloudy
3:53 PM 87.1 °F 21.9 °F 9% 29.50 in 10.0 mi SW 20.7 mph 28.8 mph N/A   Clear
4:53 PM 89.1 °F 19.0 °F 8% 29.48 in 10.0 mi WSW 21.9 mph 31.1 mph N/A   Clear
5:53 PM 88.0 °F 19.0 °F 8% 29.48 in 10.0 mi SW 19.6 mph 32.2 mph N/A   Clear
6:53 PM 86.0 °F 17.1 °F 8% 29.48 in 10.0 mi WSW 24.2 mph 32.2 mph N/A   Clear
7:21 PM 82.9 °F 16.0 °F 8% 29.67 in 2.5 mi West 26.5 mph 35.7 mph N/A   Haze
7:53 PM 81.0 °F 12.0 °F 7% 29.51 in 3.0 mi West 27.6 mph 38.0 mph N/A   Haze
8:53 PM 78.1 °F 10.0 °F 7% 29.54 in 9.0 mi West 24.2 mph 31.1 mph N/A   Overcast
9:53 PM 75.0 °F 5.0 °F 7% 29.57 in 10.0 mi West 13.8 mph - N/A   Mostly Cloudy
10:53 PM 68.0 °F 5.0 °F 8% 29.61 in 10.0 mi WNW 8.1 mph - N/A   Clear
11:53 PM 66.9 °F 5.0 °F 9% 29.62 in 10.0 mi NE 6.9 mph - N/A   Clear